[[{"header":{"parameterUnit":"m.s-1","parameterCategory":1,"la1":30.2991,"la2":30.254,"lo1":-89.0895,"lo2":-89.0444,"dy":0.0017,"dx":0.0017,"nx":28,"ny":28,"refTime":"2024-07-12T03:00:00:Z","depth":0,"parameterNumber":2,"parameterNumberName":"U-component_of_WINDS"},"data":[0,0,0,0,0,0,0,0,0,0,0,0,0,0,0,0,0,0,0,0,0,0,0,0,0,0,0,0,0,0,0,0,0,0,0,0,0,0,0,0,0,0,0,0,0,0,0,0,0,0,0,0,0,0,0,0,0,0,1.3927,1.3927,0,1.3965,1.3965,1.3966,1.3949,1.3948,1.3947,1.3946,1.3984,1.3986,1.3988,0,0,0,0,0,0,0,0,0,0,0,0,0,1.3839,1.3841,1.3927,1.3927,1.3928,1.3965,1.3965,1.3966,1.3949,1.3948,1.3947,1.3946,1.3984,1.3986,1.3988,0,0,0,0,0,0,0,0,0,0,0,0,0,1.3877,1.3842,1.3927,1.3924,1.3924,1.3965,1.3965,1.3966,1.395,1.3948,1.3947,1.3945,1.3983,1.3986,1.3988,1.4033,0,0,1.3997,1.3998,0,0,0,0,0,0,0,0,1.3875,1.3881,1.3924,1.3924,1.3925,1.3951,1.3948,1.3989,1.395,1.394,1.3946,1.3945,1.3974,1.3978,1.3988,1.4035,1.4037,1.3997,1.3999,1.4,1.4001,0,0,0,0,0,0,0,1.3873,1.3879,1.3942,1.3925,1.3925,1.3921,1.3925,1.3956,1.3964,1.3941,1.394,1.3944,1.3974,1.3985,1.3988,1.4037,1.3997,1.4,1.4001,1.4002,1.4124,1.4126,0,0,0,0,0,0,1.387,1.3877,1.3941,1.3943,1.3896,1.3923,1.3928,1.3944,1.3964,1.3966,1.3945,1.3943,1.3981,1.3985,1.399,1.4044,1.4,1.4003,1.4004,1.4123,1.4124,1.4126,0,0,0,0,0,0,1.3868,1.3876,1.3939,1.391,1.3917,1.3926,1.3945,1.3945,1.3956,1.3968,1.3969,1.3955,1.398,1.3986,1.4023,1.4045,1.4004,1.4006,1.4121,1.4123,1.4125,1.4152,0,0,0,0,0,0,1.3866,1.3876,1.3893,1.391,1.3919,1.3972,1.3946,1.3947,1.3961,1.3959,1.3977,1.3979,1.3979,1.4019,1.4026,1.4048,1.4009,1.4119,1.4122,1.4125,1.415,1.4155,1.416,0,0,0,0,0,1.3863,1.3899,1.3894,1.3902,1.3941,1.3973,1.3978,1.3978,1.3963,1.3981,1.3988,1.3978,1.4042,1.4023,1.403,1.4054,1.4117,1.4121,1.4124,1.4147,1.4154,1.416,0,0,0,0,0,0,1.3883,1.3901,1.3896,1.3938,1.3954,1.397,1.3992,1.3986,1.4006,1.4003,1.4003,1.4007,1.4045,1.4053,1.4032,1.4099,1.4077,1.4082,1.4092,1.4099,1.4104,1.4101,1.4011,0,0,0,0,0,1.3893,1.3917,1.3932,1.3968,1.3976,1.3983,1.3997,1.3996,1.4013,1.4019,1.4029,1.4045,1.4069,1.4084,1.4107,1.4151,1.4155,1.4171,1.4177,1.4181,1.4185,1.4209,1.4217,1.4138,1.4138,1.4138,0,0,1.3912,1.3925,1.3941,1.3972,1.3985,1.401,1.3989,1.4017,1.4036,1.4023,1.4059,1.4067,1.4085,1.4126,1.4144,1.4134,1.4208,1.4185,1.4189,1.4191,1.4214,1.4221,1.4228,1.414,1.414,1.4139,0,0,1.3961,1.3973,1.4005,1.4018,1.4037,1.4042,1.4049,1.4067,1.4071,1.4107,1.4099,1.4121,1.4162,1.4175,1.4187,1.4242,1.4234,1.425,1.4277,1.4301,1.4307,1.4313,1.4332,1.4339,1.4254,1.4254,1.4254,0,1.3982,1.4021,1.4022,1.4051,1.4065,1.4055,1.4087,1.41,1.4125,1.4135,1.4123,1.4174,1.4186,1.423,1.4243,1.4254,1.4262,1.4247,1.4306,1.4312,1.4317,1.4335,1.4342,1.4256,1.4256,1.4255,1.4255,0,1.4047,1.4074,1.4097,1.4122,1.4139,1.4169,1.4174,1.4191,1.4189,1.4195,1.4232,1.4245,1.427,1.4281,1.4279,1.4325,1.4318,1.4306,1.4284,1.4326,1.4343,1.435,1.4258,1.4258,1.4257,1.4257,0,0,1.4108,1.4134,1.4143,1.4154,1.4175,1.4196,1.4226,1.4251,1.4265,1.4284,1.4308,1.4344,1.4333,1.4347,1.4347,1.4367,1.441,1.4353,1.4354,1.4363,1.4461,1.4469,1.4477,1.4405,1.4406,1.4407,1.4459,0,1.4158,1.4211,1.4213,1.4261,1.4285,1.4278,1.4304,1.4319,1.4326,1.4348,1.4354,1.4379,1.4364,1.4372,1.4393,1.44,1.4429,1.4397,1.4427,1.4429,1.4422,1.4486,1.4495,1.4543,1.4466,1.4467,1.4468,0,1.4223,1.4244,1.4295,1.4313,1.4323,1.4346,1.437,1.4391,1.4409,1.4412,1.4428,1.4424,1.4455,1.4433,1.4475,1.4453,1.4465,1.4471,1.4473,1.4475,1.445,1.4489,1.4558,1.4565,1.4479,1.4478,1.4477,0,1.4262,1.4303,1.4339,1.4349,1.4371,1.4387,1.4397,1.4414,1.4429,1.4449,1.4459,1.4483,1.4495,1.4514,1.4517,1.45,1.4559,1.4537,1.4562,1.4562,1.4574,1.4573,1.4645,1.4583,1.4583,1.4583,1.4583,0,1.4318,1.4349,1.4357,1.4378,1.4413,1.4415,1.4449,1.4458,1.4473,1.4496,1.4491,1.4513,1.4516,1.4539,1.4541,1.4576,1.4581,1.4585,1.4585,1.4585,1.4584,1.4592,1.4589,1.4585,1.4585,1.4584,1.4584,0,1.4367,1.4373,1.4412,1.443,1.4435,1.446,1.4475,1.4496,1.4502,1.4531,1.4538,1.4548,1.4575,1.458,1.4611,1.4613,1.4653,1.4651,1.4647,1.4647,1.4671,1.4669,1.4751,1.4761,1.4693,1.4694,1.4695,0,1.4401,1.4425,1.4446,1.4461,1.4472,1.4497,1.4512,1.4516,1.4532,1.4554,1.4572,1.4599,1.4619,1.4662,1.4672,1.4696,1.4693,1.472,1.4696,1.4695,1.4693,1.4691,1.4693,1.4724,1.4725,1.4726,1.4726,0,1.4461,1.4464,1.4486,1.4511,1.4529,1.4549,1.4567,1.4579,1.4585,1.4604,1.4631,1.4647,1.4679,1.4705,1.4729,1.4739,1.4734,1.4734,1.4741,1.474,1.4737,1.4739,1.4659,1.4731,1.4731,1.473,1.473,1.473,1.4504,1.4525,1.4543,1.4568,1.4583,1.46,1.462,1.4629,1.4652,1.4679,1.4679,1.4709,1.4727,1.4758,1.477,1.4793,1.4785,1.4795,1.4797,1.4799,1.4801,1.4734,1.4798,1.4798,1.4797,1.4797,1.4797,0,1.4563,1.4575,1.4599,1.4624,1.4645,1.4638,1.4658,1.4675,1.4702,1.4719,1.474,1.4771,1.4796,1.4808,1.4833,1.4849,1.4847,1.4856,1.4854,1.4856,1.4808,1.4799,1.4857,1.4857,1.4857,1.4857,1.4857,1.4857,1.4597,1.4632,1.4636,1.4678,1.469,1.4719,1.4731,1.4747,1.476,1.4796,1.4817,1.4825,1.484,1.4866,1.4888,1.4891,1.49,1.491,1.4911,1.4866,1.486,1.4854,1.4846,1.4912,1.4912,1.4958,1.4958,1.4959]},{"header":{"parameterUnit":"m.s-1","parameterCategory":1,"la1":30.2991,"la2":30.254,"lo1":-89.0895,"lo2":-89.0444,"dy":0.0017,"dx":0.0017,"nx":28,"ny":28,"refTime":"2024-07-12T03:00:00:Z","depth":0,"parameterNumber":3,"parameterNumberName":"V-component_of_WINDS"},"data":[0,0,0,0,0,0,0,0,0,0,0,0,0,0,0,0,0,0,0,0,0,0,0,0,0,0,0,0,0,0,0,0,0,0,0,0,0,0,0,0,0,0,0,0,0,0,0,0,0,0,0,0,0,0,0,0,0,0,-1.8369,-1.8369,0,-1.8438,-1.8439,-1.8439,-1.8439,-1.8438,-1.8437,-1.8437,-1.8507,-1.851,-1.8513,0,0,0,0,0,0,0,0,0,0,0,0,0,-1.8237,-1.8239,-1.8368,-1.8369,-1.837,-1.8438,-1.8439,-1.844,-1.8439,-1.8438,-1.8437,-1.8436,-1.8507,-1.851,-1.8513,0,0,0,0,0,0,0,0,0,0,0,0,0,-1.8299,-1.824,-1.8368,-1.8378,-1.838,-1.8437,-1.8439,-1.844,-1.844,-1.8438,-1.8437,-1.8436,-1.8505,-1.8509,-1.8514,-1.8566,0,0,-1.8526,-1.8528,0,0,0,0,0,0,0,0,-1.8295,-1.8303,-1.8376,-1.8378,-1.838,-1.8428,-1.8418,-1.8482,-1.844,-1.8417,-1.8436,-1.8435,-1.8482,-1.8488,-1.8504,-1.8569,-1.8572,-1.8526,-1.8529,-1.8531,-1.8532,0,0,0,0,0,0,0,-1.8291,-1.83,-1.8396,-1.8377,-1.8379,-1.8379,-1.8387,-1.843,-1.8456,-1.8419,-1.8419,-1.8427,-1.8483,-1.85,-1.8506,-1.8573,-1.8526,-1.853,-1.8532,-1.8534,-1.8685,-1.8687,0,0,0,0,0,0,-1.8284,-1.8297,-1.8394,-1.8398,-1.8333,-1.8383,-1.8391,-1.8414,-1.8456,-1.8461,-1.8428,-1.8427,-1.8494,-1.8501,-1.8508,-1.8572,-1.8531,-1.8534,-1.8537,-1.8684,-1.8686,-1.8687,0,0,0,0,0,0,-1.8282,-1.8293,-1.8391,-1.8348,-1.836,-1.8387,-1.8412,-1.8416,-1.8433,-1.8463,-1.8468,-1.8441,-1.8493,-1.8503,-1.8552,-1.8575,-1.8536,-1.854,-1.8682,-1.8684,-1.8687,-1.8701,0,0,0,0,0,0,-1.8278,-1.8292,-1.8312,-1.8348,-1.8362,-1.8433,-1.8414,-1.8419,-1.844,-1.8439,-1.8476,-1.8481,-1.8493,-1.8546,-1.8556,-1.858,-1.8543,-1.868,-1.8683,-1.8686,-1.8698,-1.8703,-1.8708,0,0,0,0,0,-1.8273,-1.8313,-1.8313,-1.8325,-1.8388,-1.8434,-1.8442,-1.8455,-1.8442,-1.8463,-1.8482,-1.848,-1.8571,-1.8551,-1.8562,-1.8588,-1.8679,-1.8682,-1.8686,-1.8696,-1.8703,-1.8708,0,0,0,0,0,0,-1.8279,-1.8318,-1.8318,-1.8371,-1.84,-1.8434,-1.846,-1.8461,-1.8494,-1.8491,-1.8506,-1.8514,-1.8563,-1.858,-1.8557,-1.8641,-1.8623,-1.8629,-1.8627,-1.8634,-1.8638,-1.8633,-1.8547,0,0,0,0,0,-1.8287,-1.8321,-1.8353,-1.8397,-1.8411,-1.8433,-1.8454,-1.8461,-1.8491,-1.8503,-1.8526,-1.8555,-1.859,-1.8613,-1.8647,-1.8701,-1.8709,-1.8725,-1.8729,-1.8733,-1.8738,-1.8768,-1.8775,-1.8699,-1.8699,-1.8699,0,0,-1.8303,-1.8328,-1.8349,-1.8399,-1.8422,-1.8457,-1.8443,-1.8481,-1.8508,-1.8509,-1.8557,-1.8574,-1.8608,-1.866,-1.8684,-1.8676,-1.8761,-1.8737,-1.874,-1.8743,-1.8772,-1.878,-1.8786,-1.8701,-1.8701,-1.87,0,0,-1.8349,-1.8372,-1.8411,-1.8434,-1.8469,-1.8484,-1.8493,-1.8528,-1.854,-1.8588,-1.859,-1.8622,-1.8682,-1.8706,-1.8726,-1.8782,-1.8782,-1.8793,-1.8817,-1.8846,-1.8852,-1.8858,-1.8878,-1.8885,-1.8798,-1.8798,-1.8798,0,-1.8365,-1.8418,-1.8431,-1.8469,-1.8491,-1.8494,-1.8534,-1.8556,-1.86,-1.8615,-1.8606,-1.8682,-1.8704,-1.8762,-1.8776,-1.8792,-1.8803,-1.8788,-1.885,-1.8856,-1.8861,-1.888,-1.8888,-1.8799,-1.8799,-1.8799,-1.8799,0,-1.8435,-1.8472,-1.8499,-1.8541,-1.8567,-1.8605,-1.8625,-1.8649,-1.8654,-1.867,-1.8719,-1.8747,-1.8787,-1.8801,-1.8807,-1.886,-1.8854,-1.8847,-1.883,-1.8869,-1.8888,-1.8895,-1.8801,-1.88,-1.88,-1.88,0,0,-1.8486,-1.8536,-1.8546,-1.8565,-1.8604,-1.8633,-1.8672,-1.8711,-1.8731,-1.8762,-1.8795,-1.8847,-1.8841,-1.8864,-1.8872,-1.8898,-1.8941,-1.8889,-1.889,-1.8897,-1.9001,-1.9006,-1.9014,-1.8941,-1.8943,-1.8944,-1.8998,0,-1.8537,-1.8606,-1.8619,-1.868,-1.8714,-1.8718,-1.8752,-1.878,-1.8796,-1.8828,-1.8845,-1.8881,-1.8871,-1.8885,-1.8911,-1.893,-1.8962,-1.8927,-1.8972,-1.8974,-1.8963,-1.9023,-1.9028,-1.9078,-1.9006,-1.9007,-1.9008,0,-1.8605,-1.8637,-1.8701,-1.8735,-1.875,-1.8781,-1.8818,-1.8848,-1.888,-1.889,-1.8915,-1.8921,-1.8962,-1.8943,-1.9,-1.8976,-1.8995,-1.9008,-1.901,-1.9014,-1.8993,-1.9029,-1.9094,-1.9101,-1.9019,-1.9018,-1.9018,0,-1.8636,-1.8695,-1.8741,-1.8758,-1.8799,-1.882,-1.8839,-1.8869,-1.8892,-1.8925,-1.8939,-1.8976,-1.8996,-1.9025,-1.9041,-1.9026,-1.9097,-1.9079,-1.9106,-1.9106,-1.912,-1.9119,-1.9189,-1.9134,-1.9133,-1.9133,-1.9133,0,-1.869,-1.8729,-1.8755,-1.8783,-1.8827,-1.8842,-1.8885,-1.8903,-1.8931,-1.8962,-1.8969,-1.8998,-1.9018,-1.9051,-1.9063,-1.9108,-1.9118,-1.9127,-1.913,-1.9126,-1.9125,-1.9138,-1.9135,-1.9135,-1.9135,-1.9134,-1.9134,0,-1.8732,-1.8751,-1.8801,-1.8837,-1.8846,-1.8877,-1.8907,-1.8935,-1.8951,-1.8992,-1.9002,-1.9028,-1.9067,-1.9086,-1.9134,-1.9143,-1.9194,-1.9194,-1.9183,-1.9184,-1.9209,-1.9206,-1.929,-1.9302,-1.9239,-1.924,-1.924,0,-1.8765,-1.8795,-1.8834,-1.8855,-1.8874,-1.8909,-1.8933,-1.8949,-1.8973,-1.9012,-1.9035,-1.9074,-1.9106,-1.9168,-1.9191,-1.9229,-1.923,-1.9257,-1.9236,-1.9231,-1.923,-1.9228,-1.9231,-1.926,-1.9261,-1.9261,-1.9262,0,-1.8822,-1.883,-1.8863,-1.89,-1.8928,-1.8958,-1.8987,-1.9005,-1.9026,-1.9053,-1.9093,-1.9118,-1.9167,-1.9206,-1.9245,-1.9264,-1.9267,-1.9269,-1.9277,-1.9273,-1.9265,-1.9269,-1.9192,-1.9266,-1.9266,-1.9266,-1.9265,-1.9265,-1.886,-1.8887,-1.8918,-1.8955,-1.8979,-1.9007,-1.9034,-1.9054,-1.9088,-1.9129,-1.9137,-1.918,-1.9211,-1.9264,-1.9284,-1.9318,-1.9312,-1.9324,-1.9326,-1.9329,-1.933,-1.926,-1.9325,-1.9325,-1.9325,-1.9325,-1.9325,0,-1.8917,-1.8938,-1.8971,-1.9012,-1.9042,-1.9042,-1.9074,-1.9099,-1.9136,-1.9165,-1.9197,-1.9243,-1.9281,-1.9307,-1.9346,-1.9368,-1.937,-1.9377,-1.9375,-1.938,-1.9333,-1.9322,-1.9375,-1.9375,-1.9375,-1.9375,-1.9375,-1.9375,-1.895,-1.8995,-1.9007,-1.9065,-1.9085,-1.9126,-1.9145,-1.9171,-1.9194,-1.9245,-1.9276,-1.9293,-1.9322,-1.9363,-1.9398,-1.9404,-1.9418,-1.9426,-1.9432,-1.9388,-1.9383,-1.9378,-1.9368,-1.9428,-1.9429,-1.9476,-1.9476,-1.9476]}]]